Location: Czekanka
(50.4925°N, 19.2643°E)
Time: 08:46:22
(UTC+00:00)

SL-16 R/B - Pass Details

Date: 26 September 2024
Orbit: 842 x 846 km, 71.0° (Epoch: 09 October)

Event Time Altitude Azimuth Distance (km) Brightness Sun altitude
Rises 19:08:03 0° 256° (WSW) 3,400 6.0 -24.7°
Reaches altitude 10° 19:11:03 10° 271° (W) 2,468 5.4 -25.1°
Maximum altitude 19:15:25 22° 322° (NW) 1,753 4.5 -25.7°
Drops below altitude 10° 19:19:49 10° 13° (NNE) 2,474 4.8 -26.3°
Sets 19:22:50 0° 28° (NNE) 3,412 5.4 -26.7°
